Weather in Mokhsogollokh

Russia / Sakha (Yakutia) Republic     61°23′50″N   128°56′28″E
temp.,
°C
wind,
m/s
gust,
m/s
humid.,
%
clouds,
%
prec.,
mm/h
press.,
hPa
HPBL,
m
20 april, tue
tue2000:00−9nw3986100 0.0 1017487
03:00−10wnw41086100 0.0 1016464
06:00−11wnw3986100 0.0 1017436
09:00−8wnw4773100 0.0 1016641
12:00−5wnw3563100 0.0 1014986
15:00−2wnw355999 0.0 10131372
18:00−3nw256961 0.0 1014333
21:00−12nw2294100 0.0 101614
21 april, wed
wed2100:00−14wnw1296100 0.0 101732
03:00−16wnw1198100 0.0 101811
06:00−14wnw1195100 0.0 102038
09:00−6wnw12755 0.0 1020469
12:00−3wsw236332 0.0 1020987
15:00−1ssw0160100 0.0 10191139
18:00−2ene247599 0.0 1019197
21:00−8ne2492100 0.0 102170
22 april, thu
thu2200:00−7ne3890100 0.0 1020182
03:00−8ne2794100 0.1 1020188
06:00−7ne2395100 0.9 1020107
09:00−3ene2390100 1.4 1020324
12:00−1ne2393100 0.9 1019464
15:00−3w61093100 3.9 1020610
18:00−6nw61190100 2.3 1024789
21:00−7wnw4118399 2.4 1026836
23 april, fri
fri2300:00−10w311905 0.0 1028282
03:00−12wsw310955 0.0 1027221
06:00−9wsw4129190 0.0 1026437
09:00−3wsw51081100 0.0 1024809
12:00−2wsw5884100 0.1 10211055
15:000wsw4778100 0.8 10181131
18:00−1wsw2484100 0.4 1016231
21:00−3wnw4996100 1.4 1016528
24 april, sat
sat2400:00−4nw4128981 0.8 1019563
03:00−5nw4129182 0.9 1021487
06:00−6wnw3119257 0.0 1023556
09:00−3wnw597898 0.1 10231055
12:00−2nw5870100 0.1 10221488
15:00−1nnw5870100 0.3 10211589
18:00−1nw3876100 0.1 1020990
21:00−5w2296100 0.1 102032